Location: Fort Wayne
(41.1310°N, 85.1290°W)
Time: 16:46:36
(UTC-04:00)

SR - Visible Passes

Search period start: 27 July 2017 00:00
Search period end: 06 August 2017 00:00
Orbit: 577 x 880 km, 66.7° (Epoch: 26 July)

Date Brightness Start Highest point End Pass type
(mag) Time Alt. Az. Time Alt. Az. Time Alt. Az.
01 Aug ? 05:17:28 10° SE 05:21:10 17° ESE 05:24:49 10° ENE visible
02 Aug ? 06:07:30 10° SSW 06:13:19 60° ESE 06:18:54 10° NE visible
03 Aug ? 05:18:54 10° S 05:24:02 32° ESE 05:29:01 10° NE visible
04 Aug ? 04:31:23 10° SE 04:34:55 16° ESE 04:38:22 10° ENE visible
05 Aug ? 05:21:16 10° SSW 05:27:02 58° ESE 05:32:35 10° NE visible
